TimeCST,TemperatureF,Dew PointF,Humidity,Sea Level PressureIn,VisibilityMPH,Wind Direction,Wind SpeedMPH,Gust SpeedMPH,PrecipitationIn,Events,Conditions,WindDirDegrees,DateUTC
12:24 AM,24.8,21.2,86,29.92,10.0,South,11.5,-,N/A,,Partly Cloudy,170,2013-12-27 06:24:00
12:53 AM,25.0,21.0,85,29.96,10.0,South,12.7,-,N/A,,Clear,170,2013-12-27 06:53:00
1:53 AM,27.0,23.0,85,29.92,10.0,South,17.3,-,N/A,,Clear,180,2013-12-27 07:53:00
2:53 AM,28.0,25.0,88,29.88,10.0,South,17.3,-,N/A,,Clear,190,2013-12-27 08:53:00
3:53 AM,26.1,21.9,84,29.85,10.0,South,16.1,-,N/A,,Clear,180,2013-12-27 09:53:00
4:53 AM,27.0,23.0,85,29.80,10.0,South,18.4,-,N/A,,Overcast,180,2013-12-27 10:53:00
5:53 AM,26.1,21.9,84,29.77,10.0,South,15.0,-,N/A,,Scattered Clouds,190,2013-12-27 11:53:00
6:53 AM,25.0,21.0,85,29.75,10.0,SSW,11.5,-,N/A,,Mostly Cloudy,200,2013-12-27 12:53:00
7:53 AM,26.1,21.9,84,29.74,10.0,SSW,12.7,-,N/A,,Mostly Cloudy,210,2013-12-27 13:53:00
8:53 AM,23.0,19.0,85,29.75,10.0,SSW,5.8,-,N/A,,Overcast,210,2013-12-27 14:53:00
9:53 AM,34.0,27.0,75,29.76,10.0,WNW,17.3,-,N/A,,Scattered Clouds,300,2013-12-27 15:53:00
10:53 AM,37.0,28.9,73,29.80,10.0,NW,12.7,-,N/A,,Scattered Clouds,310,2013-12-27 16:53:00
11:53 AM,37.9,30.0,73,29.82,10.0,NW,20.7,26.5,N/A,,Scattered Clouds,320,2013-12-27 17:53:00
12:53 PM,37.0,30.0,76,29.86,10.0,NW,15.0,-,N/A,,Scattered Clouds,310,2013-12-27 18:53:00
1:30 PM,37.4,30.2,75,29.85,10.0,NW,18.4,-,N/A,,Overcast,320,2013-12-27 19:30:00
1:53 PM,37.0,30.0,76,29.88,10.0,NW,17.3,-,N/A,,Overcast,310,2013-12-27 19:53:00
2:53 PM,36.0,30.0,79,29.89,10.0,NW,12.7,-,N/A,,Overcast,320,2013-12-27 20:53:00
3:53 PM,35.1,30.0,82,29.91,10.0,North,11.5,-,N/A,,Overcast,360,2013-12-27 21:53:00
4:53 PM,34.0,28.0,79,29.94,10.0,North,9.2,-,N/A,,Overcast,10,2013-12-27 22:53:00
5:53 PM,32.0,28.0,85,29.95,10.0,NE,6.9,-,N/A,,Overcast,40,2013-12-27 23:53:00
6:53 PM,30.9,27.0,85,29.95,10.0,North,4.6,-,N/A,,Overcast,360,2013-12-28 00:53:00
7:53 PM,30.9,26.1,82,29.94,10.0,North,4.6,-,N/A,,Overcast,10,2013-12-28 01:53:00
8:53 PM,30.0,26.1,85,29.93,10.0,NE,3.5,-,N/A,,Overcast,50,2013-12-28 02:53:00
9:53 PM,28.9,25.0,85,29.92,10.0,East,4.6,-,N/A,,Overcast,90,2013-12-28 03:53:00
10:48 PM,28.4,24.8,86,29.88,8.0,Calm,Calm,-,N/A,,Overcast,0,2013-12-28 04:48:00
10:53 PM,28.0,26.1,92,29.91,8.0,Calm,Calm,-,N/A,,Overcast,0,2013-12-28 04:53:00
11:53 PM,28.0,26.1,92,29.88,4.0,East,4.6,-,N/A,,Overcast,100,2013-12-28 05:53:00